Terminal Aerodrome Forecast
Issued by NWS Tallahassee, FL

Home | Current Version | Previous Version | Text Only | Print | Product List | Glossary On
Versions: 1 2 3 4 5 6 7 8 9 10 11 12 13
571
FTUS42 KTAE 091120
TAFTLH
TAF
KTLH 091120Z 0912/1012 28012KT P6SM SKC
     FM091500 28016G26KT P6SM FEW250
     FM092300 29010KT P6SM SKC=

USA.gov is the U.S. government's official web portal to all federal, state and local government web resources and services.